GFSFLT2_850_rhum_000.txt.gz
RH
95 86 87 86 95 93 91 89 76 78 72 71 75 79 80 78 83 82 86 91 95 91 89 85 57 20 83
97 99 91 86 89 87 82 84 84 86 82 77 75 83 88 86 89 92 96 100 99 99 93 75 39 66 95
100 100 100 96 91 89 93 96 97 82 75 82 81 86 94 80 98 94 98 99 98 100 91 61 20 94 94
100 99 99 99 100 100 98 96 90 95 97 90 76 83 99 100 97 100 100 100 100 98 80 55 17 68 93
100 100 98 96 98 99 98 95 88 84 91 95 96 98 91 100 98 84 100 100 100 97 84 40 28 54 90
100 100 99 100 100 99 100 100 100 89 83 83 94 100 100 100 99 87 98 99 99 86 98 62 94 97 95
100 99 99 100 100 98 99 98 99 99 100 99 99 100 100 100 99 98 100 100 90 77 70 97 97 95 95
98 100 100 100 100 100 100 100 99 100 99 100 100 100 100 100 100 100 100 99 93 87 98 99 97 96 96
100 99 100 100 100 100 98 100 100 100 100 97 100 100 100 100 100 100 100 99 98 95 98 97 96 96 96
95 86 99 100 100 100 100 100 100 100 99 100 100 100 100 99 99 99 98 98 93 96 97 96 100 97 90
100 99 100 100 100 100 100 100 100 99 100 100 100 100 99 98 98 98 67 81 93 97 97 99 96 97 97
100 99 99 98 99 99 100 99 100 100 100 100 99 99 98 92 90 70 46 40 45 54 52 49 51 87 93
100 98 98 99 99 100 99 99 100 100 100 99 100 99 99 95 16 21 31 32 30 24 23 24 25 26 28
99 96 97 98 99 98 98 98 99 98 98 99 98 95 31 16 13 18 21 18 21 22 24 30 38 45 52
97 97 98 97 97 97 98 98 98 97 97 97 71 24 24 20 17 17 18 21 34 39 43 44 46 52 58
97 97 97 97 97 97 97 97 97 97 96 46 30 30 22 18 17 20 32 41 46 49 53 59 59 64 70
97 96 96 96 97 97 96 96 97 95 43 40 31 18 16 18 22 30 41 50 55 56 61 66 71 75 82

GFSFLT2_850_rhum_003.txt.gz
RH
96 93 93 97 97 92 81 77 72 70 79 78 80 85 85 75 84 79 75 76 79 85 100 100 100 97 88
89 98 100 96 91 93 93 93 89 78 75 77 83 89 95 97 94 90 83 80 81 86 95 100 100 98 97
92 94 92 100 96 90 92 93 82 94 89 86 84 93 84 100 88 97 93 91 92 94 100 100 100 100 99
89 95 95 95 99 100 95 100 95 79 83 77 85 91 97 83 81 92 100 100 99 100 100 100 99 96 96
98 99 98 95 100 100 99 98 99 97 83 75 71 93 93 89 87 89 100 100 100 100 97 98 99 99 91
94 100 99 100 100 100 100 100 99 100 100 97 83 80 77 82 89 86 100 100 100 100 100 100 100 99 91
99 96 99 99 97 100 100 100 100 98 100 99 98 79 92 88 94 91 100 100 100 100 100 100 100 96 96
100 99 98 96 100 100 100 100 98 98 100 100 100 98 98 98 100 100 100 100 100 100 98 100 100 98 82
98 95 97 98 100 100 100 100 100 100 99 100 99 100 100 100 100 100 100 100 100 100 100 99 98 96 98
95 98 100 98 100 100 100 100 100 100 97 100 97 100 100 100 100 99 100 100 100 99 98 98 96 97 96
96 88 94 100 100 99 99 99 99 100 100 100 100 100 100 98 99 99 99 99 98 98 98 97 95 98 96
98 94 98 100 98 98 97 98 98 99 99 100 100 100 99 97 96 97 97 98 97 96 96 98 98 100 99
98 96 97 99 97 96 97 97 97 98 99 99 99 99 99 98 95 97 97 96 90 92 90 85 94 99 100
97 95 97 98 97 97 97 97 97 97 97 97 98 98 98 98 98 97 86 30 39 46 63 72 74 59 50
96 97 98 95 95 97 96 97 97 96 97 97 97 84 36 28 12 19 24 17 29 31 28 26 26 26 31
97 98 97 96 96 96 96 96 97 96 96 95 44 24 23 23 23 23 22 20 28 26 30 40 47 50 52
97 96 96 96 96 96 96 96 96 96 84 38 36 25 18 25 26 27 34 43 48 51 50 53 58 66 71

GFSFLT2_850_rhum_006.txt.gz
RH
59 34 26 33 69 78 80 83 86 78 79 83 81 90 89 85 90 99 86 88 88 92 89 86 75 84 92
48 43 42 27 29 52 83 88 80 94 92 80 95 92 93 91 86 85 86 100 97 98 100 98 84 82 94
74 59 45 32 60 68 59 63 81 97 91 99 95 77 82 74 79 83 91 100 89 81 99 100 97 83 100
98 98 90 65 86 87 84 79 82 87 97 99 89 88 75 68 78 80 93 99 92 97 87 100 100 96 99
98 100 98 99 100 88 96 88 91 97 97 92 84 80 95 90 78 79 78 89 89 86 79 90 95 100 100
97 96 98 92 98 100 99 100 98 100 97 97 99 97 74 67 68 74 73 70 83 85 85 98 100 100 100
95 96 100 99 99 96 100 100 100 91 96 98 100 98 98 93 76 82 84 84 86 83 100 100 100 100 100
100 98 99 98 100 95 100 98 98 99 100 100 98 100 99 98 89 79 81 90 91 100 100 100 100 100 100
100 100 99 90 97 99 96 99 99 98 84 100 98 99 99 98 90 90 92 100 100 100 100 100 100 100 100
90 79 83 92 99 97 96 98 99 99 94 100 99 100 98 99 98 100 100 100 100 100 100 100 100 100 99
86 93 93 98 96 96 97 97 97 99 98 99 99 100 100 99 99 100 100 100 100 99 100 100 99 98 97
98 98 100 100 97 95 96 97 97 98 94 95 97 99 100 99 99 99 99 99 99 98 99 98 98 97 97
100 100 99 95 96 90 92 93 97 97 95 93 98 99 98 98 97 97 98 98 98 98 98 98 98 98 97
98 100 92 98 99 95 98 96 96 96 96 96 97 98 97 98 98 97 97 96 98 98 97 98 100 100 98
100 97 94 99 96 95 97 97 96 96 96 96 97 97 97 97 96 97 97 97 97 95 99 97 99 100 100
97 96 98 98 98 96 96 96 96 96 96 96 95 88 86 94 97 97 91 39 98 94 85 90 92 86 68
96 96 96 97 97 96 96 96 96 96 96 94 75 59 28 43 71 39 26 30 56 64 43 28 25 31 40

GFSFLT2_850_rhum_012.txt.gz
RH
70 64 62 60 61 62 67 69 71 69 79 90 83 62 37 61 72 78 89 87 97 94 87 90 93 92 94
73 72 68 70 73 67 68 68 70 69 74 79 85 82 75 65 81 79 70 86 93 90 98 90 92 92 99
84 82 79 76 76 76 77 67 71 78 80 79 90 95 89 94 70 56 75 69 84 95 90 84 87 90 95
90 89 84 73 72 74 73 81 85 81 87 97 95 97 93 93 85 80 97 98 96 92 93 86 81 84 93
95 88 74 71 78 82 83 76 77 78 91 90 88 86 87 85 61 54 75 82 98 100 94 85 79 83 98
98 92 77 79 84 82 91 96 96 62 90 91 77 93 86 84 83 90 92 93 91 97 97 89 69 70 83
95 89 82 88 94 98 100 95 94 85 92 89 89 88 86 84 99 90 98 97 99 99 98 75 69 65 77
81 94 96 99 94 95 94 92 94 86 97 98 92 85 81 96 91 98 99 99 99 89 84 77 71 72 72
91 92 89 93 98 96 93 100 96 96 93 97 92 95 98 71 78 96 95 86 86 86 78 76 80 71 69
89 88 98 100 100 95 95 98 99 98 91 97 89 94 96 87 93 98 88 92 99 95 79 70 72 88 100
90 95 97 95 94 96 96 96 96 97 87 97 96 96 97 99 90 87 86 100 100 99 100 100 100 100 100
95 96 98 93 92 95 100 95 98 99 95 97 97 99 100 98 98 86 95 99 100 100 100 100 100 100 100
99 96 93 94 93 92 93 91 95 94 96 97 96 95 97 100 99 96 97 99 100 100 100 100 100 100 99
97 94 94 95 96 95 96 96 97 94 96 95 95 96 98 97 96 96 97 98 99 100 99 99 100 100 99
96 95 93 95 94 97 97 97 96 96 96 96 96 96 97 97 96 96 97 98 99 99 98 98 99 99 99
95 96 96 96 96 95 96 96 96 96 95 95 96 96 96 96 96 97 97 98 98 99 98 96 98 99 99
97 96 96 96 96 96 95 97 96 96 94 94 54 96 96 98 97 96 97 97 98 98 92 86 94 97 97

GFSFLT2_850_rhum_015.txt.gz
RH
64 70 76 71 72 74 76 77 71 64 65 68 67 72 74 80 84 87 87 90 95 100 99 99 100 84 76
77 79 77 76 79 81 74 64 66 66 62 63 74 84 77 79 82 97 95 98 100 99 96 71 81 90 94
87 83 82 89 86 81 70 64 65 70 76 73 69 82 90 90 89 91 93 90 98 84 85 84 68 92 96
88 91 95 84 87 78 72 69 69 75 74 77 80 82 88 90 94 80 92 90 50 51 82 100 92 89 93
100 98 96 85 81 76 74 81 85 90 89 84 86 81 77 81 82 86 89 95 88 95 100 94 99 99 96
98 98 92 85 74 84 94 96 94 88 88 87 93 94 86 85 95 99 99 100 100 99 96 81 90 99 100
96 96 80 86 93 100 100 94 91 86 100 98 96 97 100 90 85 92 100 96 100 100 96 76 79 94 100
89 87 88 94 99 95 94 98 99 94 95 99 90 97 81 83 69 86 93 98 98 99 99 100 98 91 100
88 85 86 87 91 95 96 100 97 97 94 98 96 97 82 87 70 88 99 98 98 97 92 92 91 92 82
87 83 86 88 97 94 96 98 98 98 90 98 96 97 97 85 93 88 90 95 94 94 94 81 78 76 74
86 88 94 97 95 94 95 97 98 99 91 99 97 97 99 98 95 92 96 95 97 100 100 93 81 77 71
96 99 100 99 93 91 87 90 94 98 93 97 97 99 98 97 95 90 93 98 99 100 100 100 100 100 100
99 100 94 94 96 96 93 91 92 87 94 95 98 98 98 95 98 98 97 95 99 100 100 100 100 100 99
97 92 94 97 96 96 96 96 96 88 97 96 95 95 96 95 98 94 98 97 98 100 100 100 100 100 100
96 96 96 97 94 95 96 96 97 96 95 94 95 95 98 97 95 97 94 97 98 99 100 99 100 100 100
96 96 96 96 95 95 96 97 96 95 95 96 95 94 94 96 96 96 96 98 98 99 99 98 98 99 99
96 96 96 96 96 96 96 97 95 93 81 86 96 96 96 96 97 96 96 97 98 98 98 98 98 99 99

GFSFLT2_850_rhum_018.txt.gz
RH
68 69 79 79 64 81 84 87 81 78 73 71 68 65 65 69 77 80 86 78 82 78 85 84 88 97 99
84 90 85 78 86 86 91 90 88 72 69 68 67 69 82 78 71 69 73 81 84 96 96 93 95 99 96
94 88 95 90 84 93 96 86 78 71 64 73 77 79 78 75 81 82 80 90 98 98 98 97 100 99 98
100 97 94 91 98 92 86 77 71 82 80 91 89 81 84 83 83 85 93 94 88 87 87 95 95 94 90
98 96 96 91 95 93 85 77 86 88 98 86 85 88 80 91 93 95 96 93 93 90 98 99 97 92 99
99 91 81 82 98 100 96 100 96 91 87 95 100 95 90 92 99 100 98 97 90 87 98 100 99 98 81
84 89 97 96 94 100 99 100 98 97 100 100 94 98 97 75 90 96 97 97 93 93 100 100 100 100 98
86 97 97 97 97 96 98 96 97 98 100 100 98 92 85 89 97 98 100 98 98 98 98 98 99 100 99
100 96 87 89 93 94 97 100 97 96 92 98 95 95 91 90 80 90 97 97 98 100 100 98 94 90 94
86 68 71 85 100 97 96 98 99 99 91 100 98 97 98 86 93 93 94 92 98 98 97 94 83 81 77
73 85 97 97 95 96 97 98 97 98 76 100 97 96 100 98 94 97 90 92 96 97 99 99 82 77 71
100 100 100 96 94 93 94 94 98 98 95 98 97 100 97 97 98 77 86 96 97 98 99 100 96 86 78
100 96 97 95 94 94 90 94 94 96 96 98 98 98 94 91 97 86 96 91 98 99 100 100 100 100 100
97 96 95 96 95 97 96 94 97 94 94 95 95 95 90 89 98 94 96 97 98 99 100 100 100 100 100
96 96 96 96 92 94 96 95 98 96 94 92 96 96 91 98 95 96 96 97 98 99 99 99 99 99 100
96 96 97 96 94 93 93 95 95 94 94 96 93 88 96 96 97 96 97 98 99 98 99 99 99 99 99
97 97 96 94 95 94 96 96 94 96 96 96 96 96 94 96 97 97 97 98 99 98 98 98 98 99 98

GFSFLT2_850_rhum_021.txt.gz
RH
71 70 73 71 57 70 86 92 94 92 86 88 79 72 73 69 69 71 77 82 87 82 79 89 96 96 95
79 83 79 81 75 82 98 95 84 79 86 79 74 72 70 77 78 83 87 76 76 80 83 72 77 98 99
95 79 94 92 97 96 81 85 80 81 77 74 72 79 85 90 85 78 79 86 89 82 82 92 98 99 96
95 95 97 94 88 76 73 80 93 89 86 87 91 93 82 84 88 89 91 92 90 83 84 96 96 94 86
97 98 93 84 82 85 94 97 94 99 96 96 92 91 88 90 92 95 100 97 98 99 97 92 97 96 95
98 99 88 92 94 99 98 97 94 92 93 97 100 99 90 87 97 100 97 91 94 98 98 97 94 95 91
94 97 100 93 97 97 100 100 98 96 100 100 98 100 92 87 97 96 96 100 100 100 100 97 98 94 92
94 96 97 97 95 98 97 99 100 99 97 100 97 99 76 88 87 98 100 99 96 100 100 99 100 100 100
100 99 91 93 96 96 95 100 97 97 80 100 92 94 100 83 65 78 94 100 99 100 100 100 100 100 100
83 69 68 83 100 99 96 98 100 98 68 98 98 97 97 88 80 86 85 90 100 100 100 100 100 100 100
76 88 96 97 93 95 96 97 97 97 82 99 98 97 100 98 93 88 85 91 96 97 97 98 98 98 100
100 100 100 95 94 95 96 96 97 98 96 96 96 98 98 98 94 74 89 96 97 96 98 98 98 90 75
100 100 98 95 93 93 92 94 87 92 95 97 96 96 99 98 96 92 97 91 97 98 98 99 100 100 100
98 94 94 94 95 97 96 94 94 86 90 97 98 98 97 88 95 94 97 97 99 99 100 100 100 100 98
96 95 95 96 96 95 96 95 98 96 91 92 96 97 89 85 92 97 96 98 98 99 98 99 99 100 100
96 97 97 97 96 95 95 96 97 95 96 96 95 91 90 95 97 96 98 98 98 98 98 99 98 99 100
97 97 97 97 100 96 96 96 95 96 96 93 96 96 94 96 98 98 98 98 98 98 98 98 98 99 99

GFSFLT2_850_rhum_024.txt.gz
RH
76 78 83 70 76 93 99 94 91 89 80 76 76 74 77 80 81 79 73 71 79 84 85 89 89 90 92
80 85 77 72 87 92 95 82 92 76 74 78 86 76 75 78 77 79 88 82 91 97 95 89 86 84 86
88 73 85 94 98 90 74 74 72 72 80 82 84 84 84 91 93 93 97 89 80 80 81 79 83 89 81
98 96 93 98 88 85 76 79 76 90 97 91 92 90 90 89 88 87 89 92 90 87 87 93 88 81 78
96 96 95 85 87 84 89 86 98 95 85 89 92 92 95 94 91 93 97 96 97 98 98 99 98 98 98
97 93 93 94 90 97 98 97 90 90 89 98 100 95 90 83 97 100 100 98 95 98 98 96 92 95 98
93 87 100 92 98 100 100 100 100 94 99 100 90 100 78 85 86 99 100 100 97 98 100 100 100 100 100
94 97 98 96 97 99 98 100 99 92 98 97 86 92 82 80 71 78 100 100 100 99 98 99 100 100 100
100 97 94 96 100 96 93 100 99 94 71 100 82 91 96 86 73 71 73 99 100 100 100 100 99 98 98
84 69 68 76 100 99 96 98 100 100 74 98 96 97 96 87 82 87 83 73 96 98 97 98 100 99 96
74 80 87 90 92 95 97 97 97 97 80 99 96 99 100 97 92 85 80 78 95 96 97 97 98 97 95
97 99 95 93 94 95 96 95 96 97 95 97 97 99 98 99 100 74 75 95 97 97 97 97 98 98 98
100 93 95 93 93 94 91 94 92 94 95 96 97 97 100 99 99 80 96 84 95 98 98 98 98 98 100
96 92 92 92 93 97 96 94 94 85 86 96 96 98 96 92 92 94 96 97 98 98 98 99 100 100 100
94 96 92 95 93 94 95 95 96 96 93 87 93 97 95 96 95 97 97 98 98 98 98 98 100 100 100
93 95 96 97 95 94 95 96 96 96 96 95 94 88 92 92 97 98 98 98 98 98 98 98 99 100 100
95 96 97 94 98 96 95 96 94 98 96 96 96 96 94 97 98 98 98 98 98 98 98 98 99 98 100

GFSFLT2_850_rhum_027.txt.gz
RH
71 72 77 66 72 84 93 95 97 96 91 77 76 79 78 80 92 92 92 86 90 91 88 88 91 88 82
80 68 66 70 79 95 100 98 85 80 76 78 80 82 86 93 86 87 91 92 89 81 80 82 90 94 94
96 77 84 93 98 97 82 76 76 77 82 87 90 88 90 85 87 94 96 97 97 98 97 97 93 88 84
100 100 100 97 90 83 78 80 89 85 92 96 94 88 89 90 91 89 90 90 89 88 90 87 88 90 87
100 98 97 84 82 80 93 97 98 99 94 90 88 94 96 92 90 92 98 99 98 98 97 97 98 98 95
92 90 83 87 88 100 99 100 96 94 96 81 92 90 74 78 69 100 100 99 97 98 100 100 99 99 99
89 89 100 94 97 95 100 100 100 99 100 94 83 87 76 73 75 83 100 100 100 98 97 98 99 97 97
98 96 98 97 98 100 100 100 99 95 100 98 86 83 80 74 66 66 85 100 100 100 100 98 99 100 100
100 99 91 96 100 96 94 100 100 98 87 100 87 99 90 79 76 82 99 100 98 100 100 98 98 99 98
79 70 70 76 96 97 96 98 100 98 86 98 97 100 96 90 85 89 87 83 94 99 98 99 100 99 96
76 77 84 86 85 88 96 97 96 98 81 99 97 93 100 98 92 83 87 92 95 95 96 97 97 97 96
92 95 89 86 85 86 90 95 96 97 95 97 96 100 97 99 100 76 86 94 96 93 97 98 98 97 97
98 88 90 89 87 90 89 91 89 91 95 96 100 98 98 96 97 89 97 82 95 98 98 98 98 98 98
96 90 91 89 89 95 97 93 92 79 85 96 98 98 95 94 97 95 96 97 95 99 98 98 98 99 94
94 94 92 94 91 93 95 95 96 96 90 89 93 97 97 97 95 98 97 97 98 98 97 97 99 99 100
92 96 96 98 96 92 94 97 96 95 96 96 93 83 82 85 98 97 99 98 98 97 97 98 100 100 100
97 96 98 95 96 96 96 96 93 97 96 96 97 99 98 97 96 99 98 98 97 96 97 98 100 100 100

GFSFLT2_850_rhum_030.txt.gz
RH
76 74 74 82 74 87 97 98 94 80 69 92 87 78 77 85 91 91 92 94 94 94 98 97 92 98 98
82 82 76 61 73 99 99 86 82 85 82 83 81 82 82 85 93 93 94 93 92 90 93 88 87 91 94
94 88 75 98 97 81 80 78 77 81 86 89 92 95 94 96 95 94 95 97 97 94 93 94 95 98 98
100 99 98 84 86 78 85 79 89 96 94 97 99 94 93 93 94 93 92 93 93 92 93 92 93 88 88
97 99 94 86 86 83 100 99 99 100 90 92 88 88 79 74 73 77 97 100 99 96 96 98 99 100 98
95 100 90 90 86 100 100 100 97 96 99 92 95 93 80 74 75 100 100 100 99 97 97 99 98 98 99
90 90 98 96 99 97 99 100 100 98 100 90 87 84 77 75 75 96 100 100 100 99 99 100 100 99 98
96 96 98 98 99 100 97 98 94 88 100 96 86 84 82 79 66 69 96 100 100 100 99 98 98 99 98
100 99 84 84 98 97 93 100 98 94 78 99 86 99 88 75 74 80 100 100 100 100 100 100 100 99 97
79 72 70 72 82 94 100 98 100 98 73 98 96 99 95 84 80 75 76 86 97 100 100 100 99 99 96
76 74 77 82 85 89 96 98 96 96 81 99 95 95 100 96 80 72 85 92 97 92 97 97 97 98 98
85 86 86 85 86 88 89 92 97 97 95 98 97 98 97 96 99 80 91 87 94 94 97 95 96 97 98
96 88 88 90 87 91 86 90 87 89 95 97 98 97 97 96 97 93 98 90 86 97 95 98 99 98 98
97 90 90 89 87 93 95 95 93 80 84 96 97 98 96 95 97 96 97 99 98 98 98 97 97 99 100
95 94 92 92 89 92 97 96 98 95 85 81 89 95 96 97 94 97 96 99 99 98 96 97 98 100 94
93 96 96 96 98 92 95 99 98 92 97 94 90 80 72 73 96 97 100 99 98 97 96 99 99 99 90
97 96 97 97 98 96 97 97 92 95 99 92 95 100 100 97 80 99 98 100 100 98 97 97 99 100 100

GFSFLT2_850_rhum_033.txt.gz
RH
86 87 92 92 91 97 100 100 95 92 91 90 91 90 88 89 93 93 94 92 90 93 94 96 98 98 99
92 94 85 94 99 100 97 89 90 86 88 93 94 92 90 91 91 93 93 94 95 98 98 94 96 95 88
92 70 98 100 99 88 81 80 86 90 88 96 96 100 100 98 96 93 93 92 96 93 94 92 95 96 98
96 97 97 84 84 86 88 88 95 94 86 100 99 98 99 99 100 100 100 98 96 94 92 97 98 98 94
97 96 92 88 88 92 99 98 96 98 87 93 93 85 84 94 97 98 100 100 100 100 98 98 98 97 96
98 94 86 91 93 100 100 100 97 96 97 92 94 80 85 78 88 100 100 100 100 100 99 99 98 98 98
92 92 98 93 99 96 97 100 100 97 100 99 83 91 78 74 75 100 100 100 100 100 100 100 100 100 99
97 96 96 98 98 100 97 98 91 83 100 100 88 92 80 73 63 65 87 100 100 100 100 100 100 99 99
99 100 90 84 90 99 96 100 92 92 72 100 99 99 82 65 62 69 87 99 98 98 99 99 98 100 99
91 76 73 72 78 93 96 99 100 100 76 100 93 100 94 72 71 66 82 93 99 100 98 99 99 97 96
77 75 77 82 83 87 95 97 96 97 81 99 96 93 100 99 73 67 83 91 93 90 87 96 98 98 98
86 86 88 82 83 86 87 89 94 96 93 97 96 98 97 95 100 74 85 84 95 95 95 93 92 95 98
96 91 89 87 86 87 84 86 83 84 95 96 98 96 100 98 97 87 97 90 91 99 97 100 98 99 98
100 94 91 91 87 91 91 91 90 76 79 95 96 99 96 94 99 88 94 99 96 97 98 97 97 99 99
95 95 92 94 86 89 95 95 96 92 81 78 86 91 76 80 82 88 100 99 97 97 95 98 100 99 88
95 96 96 93 94 92 96 97 97 90 89 88 84 85 75 62 78 96 95 100 98 97 97 100 100 100 100
96 94 95 96 97 95 95 95 93 92 93 92 83 100 100 100 73 94 98 97 99 98 98 98 100 100 98

GFSFLT2_850_rhum_036.txt.gz
RH
65 69 76 75 71 76 81 86 79 78 83 86 91 93 94 94 95 95 97 98 99 97 96 96 95 96 96
78 82 78 76 85 91 80 70 70 73 82 91 95 95 97 98 99 96 97 95 98 98 98 98 98 98 97
89 78 80 89 86 79 74 71 74 78 82 88 92 96 100 99 97 97 96 96 97 97 95 94 96 97 95
88 83 99 88 76 70 71 76 83 85 86 94 91 94 94 94 96 99 99 100 100 99 98 96 97 96 93
98 98 85 77 68 75 86 89 86 92 83 88 83 87 86 91 94 96 97 100 100 100 99 99 99 98 98
100 89 75 72 82 89 95 98 99 88 88 87 92 88 86 86 91 96 100 100 100 100 100 100 99 100 99
94 80 80 87 89 94 98 95 100 92 98 94 87 92 84 78 88 96 91 100 100 100 100 100 100 100 100
86 89 95 95 98 98 97 96 93 92 98 98 86 94 90 70 58 59 78 96 99 99 99 99 99 100 100
98 100 100 100 100 100 94 100 98 93 76 99 98 98 89 62 62 68 75 78 85 97 100 99 97 95 96
94 89 93 98 100 100 98 99 100 100 85 99 99 100 98 84 67 61 66 70 80 89 98 97 98 98 98
93 96 100 100 100 100 99 100 97 100 77 100 100 100 100 100 77 65 74 78 83 82 87 92 98 98 97
100 100 100 98 90 87 84 85 90 93 83 95 96 100 98 98 100 73 75 77 85 91 96 96 96 97 98
100 100 98 89 84 84 81 84 84 79 82 87 98 96 100 100 100 100 100 82 87 100 98 99 98 98 98
100 100 96 97 91 92 91 90 94 77 75 82 94 98 98 100 100 99 80 100 98 97 98 94 98 98 99
100 100 99 99 88 88 92 98 98 94 82 78 83 97 98 96 91 78 93 100 100 97 96 96 90 99 99
97 98 99 95 93 90 93 96 100 91 93 86 99 98 92 76 86 93 94 100 100 98 97 98 91 96 99
97 94 96 95 96 94 94 96 97 91 90 100 100 100 100 100 73 69 96 95 100 100 98 96 99 97 98

GFSFLT2_850_rhum_039.txt.gz
RH
68 71 74 77 78 75 78 72 81 75 78 79 85 88 90 94 94 98 100 98 99 98 98 98 98 99 99
77 81 83 80 79 85 83 84 72 69 74 83 87 89 92 95 96 97 98 98 99 98 100 100 98 99 99
82 82 83 87 91 90 76 72 68 73 78 83 89 94 94 92 93 93 95 94 95 97 96 99 99 99 98
83 82 95 97 89 77 71 74 84 79 84 74 89 91 90 88 95 96 96 99 100 100 98 98 98 98 99
98 100 100 91 82 75 81 92 77 91 94 59 88 74 69 80 84 94 97 99 99 99 100 100 100 99 100
96 100 97 86 81 88 84 100 98 87 96 67 81 73 75 75 90 96 99 100 100 100 100 100 100 100 100
97 91 89 89 81 87 100 99 100 89 96 78 79 76 72 71 81 95 90 74 95 100 100 100 100 100 100
87 91 87 90 97 98 98 91 87 89 100 98 82 75 84 76 59 58 63 98 100 100 100 100 100 100 99
90 95 100 96 94 94 90 96 93 92 88 100 90 93 80 64 65 69 72 70 68 84 94 99 100 98 98
89 90 90 88 98 96 96 98 96 94 83 98 96 100 96 84 74 62 60 64 68 72 78 87 97 97 97
92 92 87 93 100 100 100 100 96 96 75 100 99 95 100 99 78 66 70 66 71 74 76 84 98 98 98
95 96 100 100 100 97 92 92 97 100 85 93 97 99 99 98 99 75 73 70 82 83 92 94 96 98 98
96 100 100 95 91 88 87 94 96 82 80 85 99 100 100 99 100 87 99 80 77 99 100 95 92 97 99
94 93 95 92 88 91 96 92 98 78 74 81 92 100 97 98 99 99 95 99 98 98 100 93 83 97 100
97 96 93 94 88 88 93 97 100 98 85 75 83 100 99 98 96 84 92 95 99 100 99 96 83 95 100
97 97 100 97 94 90 94 95 100 97 99 90 100 99 87 95 93 95 93 93 89 96 100 100 95 79 93
99 97 97 96 96 92 94 96 95 96 93 100 100 99 98 98 76 88 98 86 94 99 100 100 100 84 92

GFSFLT2_850_rhum_042.txt.gz
RH
60 72 80 81 74 82 70 70 83 82 85 85 82 85 87 89 92 95 98 99 100 99 99 99 99 99 99
84 84 86 83 72 72 76 76 70 77 81 80 87 89 91 94 93 94 94 96 96 98 99 100 99 99 98
86 86 73 74 84 82 80 78 78 76 79 85 88 95 97 96 94 91 92 96 98 99 100 99 99 100 100
90 86 98 96 94 95 88 84 79 70 70 67 98 68 78 84 85 92 99 100 100 100 98 99 98 99 100
100 100 100 99 99 91 92 84 71 76 95 73 75 63 59 59 63 65 100 100 100 100 100 100 100 100 100
96 100 98 96 95 96 85 77 100 94 98 72 68 62 62 68 68 95 100 100 100 100 100 100 100 99 100
94 92 94 93 95 87 87 100 100 89 97 82 66 70 70 72 67 66 89 92 98 100 100 100 99 100 100
96 94 93 92 97 98 99 99 87 79 95 100 74 78 74 74 66 59 62 83 100 100 100 100 99 99 100
95 99 100 100 99 97 91 98 98 97 90 100 86 89 84 70 63 69 73 72 66 70 89 100 100 100 99
86 77 76 80 82 92 100 97 96 100 90 100 95 98 99 87 77 71 63 64 67 69 73 78 80 100 100
82 76 77 79 82 86 98 100 99 97 75 99 97 96 100 98 80 70 70 64 68 67 70 74 80 96 100
88 84 86 85 87 88 88 89 91 97 84 92 97 99 97 98 95 79 74 69 71 71 74 75 74 82 88
93 90 91 91 90 85 81 83 85 81 81 86 99 98 97 98 100 90 91 78 75 76 81 80 92 98 92
94 89 89 90 88 90 92 90 94 79 78 86 93 100 100 95 100 96 84 100 86 81 85 98 98 96 94
93 93 91 92 90 91 92 96 100 99 86 77 85 98 93 94 96 83 90 90 84 87 97 100 84 99 100
96 97 98 99 97 91 96 97 100 96 96 89 97 91 87 91 96 95 90 88 86 90 100 100 100 100 94
96 97 99 97 99 94 91 96 94 90 88 94 98 100 99 98 84 97 96 91 98 100 100 100 100 94 91

GFSFLT2_850_rhum_045.txt.gz
RH
50 51 58 59 55 59 63 67 63 66 93 92 91 90 89 92 92 94 98 99 98 99 98 98 99 99 98
65 64 68 73 75 78 74 69 69 64 90 90 88 92 94 98 98 98 94 97 99 98 96 99 98 99 98
84 86 89 84 83 82 79 76 70 73 82 77 87 81 100 100 98 97 96 98 97 100 100 100 100 100 99
93 91 87 86 94 94 84 80 81 72 71 67 80 70 84 72 65 63 66 99 100 100 100 100 99 99 100
94 91 100 98 87 89 94 85 74 77 88 82 87 69 60 57 60 60 69 100 100 100 100 100 99 97 99
95 100 98 89 88 98 90 87 100 84 100 94 69 66 60 64 65 72 82 100 100 100 99 100 98 100 99
93 88 94 92 90 92 93 99 99 87 86 100 65 70 69 71 67 61 62 89 100 100 100 100 100 100 100
92 98 98 96 98 98 97 99 87 75 82 100 81 78 77 73 63 61 63 70 100 100 100 100 100 100 100
91 98 100 99 98 100 93 98 90 80 77 100 86 91 82 71 63 67 70 74 73 71 89 98 100 100 100
86 78 72 73 77 87 94 99 95 99 80 99 95 98 98 86 79 73 65 64 68 71 70 71 78 96 100
76 71 73 76 79 82 88 98 100 97 78 98 96 96 100 99 82 74 69 66 70 67 68 69 73 80 100
78 78 82 81 81 83 86 89 90 95 88 96 96 99 97 95 93 74 74 70 71 70 72 70 68 74 75
86 85 88 86 85 85 83 84 84 80 81 87 95 97 99 97 100 88 83 71 68 72 76 75 77 73 78
94 90 87 87 86 88 89 88 90 73 77 82 86 95 97 96 100 98 80 98 76 76 82 86 82 82 86
91 90 90 93 88 87 91 96 98 93 80 72 78 88 90 91 92 81 82 82 78 86 97 100 84 78 82
91 94 96 95 94 92 98 98 98 92 88 80 87 89 81 86 91 89 85 88 83 92 97 100 96 71 84
94 94 95 94 97 97 96 97 94 90 85 92 97 98 98 100 85 99 96 92 95 95 94 100 100 82 80

GFSFLT2_850_rhum_051.txt.gz
RH
36 34 35 35 27 30 32 38 34 31 27 53 97 99 97 96 95 96 98 99 99 100 99 98 99 99 99
45 46 52 47 53 54 53 46 37 26 26 65 98 97 100 100 100 99 98 100 100 100 100 100 99 99 99
60 60 69 72 72 70 61 49 41 36 52 58 55 59 96 100 100 100 100 100 100 100 100 100 100 100 100
65 83 92 82 78 74 75 64 61 56 54 63 63 63 63 60 66 60 60 64 97 100 100 100 100 100 100
94 96 88 85 85 77 76 75 78 65 62 71 72 64 56 56 59 59 59 60 100 100 100 100 99 100 100
96 95 89 89 81 79 89 95 100 82 71 68 66 59 59 61 60 59 59 89 100 100 100 100 100 100 100
94 91 90 79 90 94 98 100 100 76 75 70 72 64 61 62 59 58 57 64 94 100 100 100 100 99 98
84 86 95 94 96 100 100 87 83 79 82 77 76 72 68 64 58 58 60 63 67 95 100 100 100 100 100
74 80 82 83 81 81 79 89 84 82 85 84 77 82 74 67 62 63 67 70 77 78 82 95 100 100 98
69 70 68 70 74 81 86 92 97 99 93 96 94 94 98 91 78 74 68 67 70 70 70 72 82 100 100
72 69 68 69 73 77 81 89 94 96 77 99 96 95 100 99 88 73 70 69 70 65 65 68 72 84 100
74 71 75 75 77 80 84 88 91 89 82 95 96 96 98 94 93 76 73 74 71 65 66 66 70 73 86
75 76 82 86 85 83 80 81 82 78 80 84 93 95 98 98 100 92 88 72 69 71 73 72 74 75 75
85 85 86 88 85 90 88 89 87 73 73 80 85 94 97 97 100 89 73 94 73 72 75 78 81 84 83
90 91 91 91 88 89 91 92 96 88 79 74 82 90 92 91 85 74 74 74 72 76 87 90 81 87 92
92 95 96 95 93 90 96 97 94 88 84 82 87 88 81 81 87 82 75 80 75 86 97 100 98 88 88
93 96 97 97 98 93 92 95 92 89 86 87 94 98 97 100 77 96 96 93 96 93 91 94 97 81 83

GFSFLT2_850_rhum_054.txt.gz
RH
29 28 29 28 26 27 30 36 29 27 25 26 78 97 99 98 98 99 99 100 100 100 100 100 100 100 98
36 39 41 35 28 38 46 49 42 30 26 40 74 76 98 100 100 100 99 100 100 100 100 100 100 100 100
43 50 51 45 59 58 62 49 36 34 47 53 54 53 53 84 100 99 99 99 100 100 100 100 100 100 99
63 66 75 73 71 71 70 57 56 54 50 55 56 53 52 54 56 56 56 56 75 100 100 100 100 100 100
73 90 82 80 85 82 74 75 76 61 52 52 53 52 48 52 56 56 56 56 73 100 100 100 99 100 100
88 95 92 90 83 76 88 91 98 66 65 64 63 56 56 61 59 58 58 58 68 99 100 99 99 99 99
96 95 93 71 85 94 96 90 84 77 82 70 68 60 61 61 59 56 55 57 70 99 100 100 100 100 99
86 77 79 96 100 100 94 83 88 83 82 81 63 67 68 64 59 55 57 61 66 86 100 100 100 99 99
66 74 75 70 71 78 79 93 91 81 78 89 74 80 73 69 64 62 65 67 70 70 68 81 100 100 99
61 63 67 70 76 82 86 92 97 91 82 97 90 91 94 83 75 72 65 63 64 64 67 72 81 100 100
67 69 70 73 72 75 81 89 95 89 77 100 95 91 100 96 81 70 70 65 66 64 65 68 73 79 100
75 75 76 76 76 80 80 82 87 87 80 91 97 95 99 94 91 74 74 70 72 69 70 71 75 78 85
80 80 84 86 81 79 77 82 82 79 81 84 92 93 98 98 98 87 84 71 70 70 75 78 76 76 76
83 85 85 84 82 88 86 88 83 70 75 79 84 96 95 94 98 89 83 98 74 73 80 80 84 84 83
84 88 87 86 83 88 91 90 95 88 75 72 82 89 91 94 93 82 79 76 75 80 92 93 80 80 81
87 92 92 88 86 85 92 92 89 83 82 82 84 85 80 85 91 86 81 83 82 92 96 100 93 85 89
92 93 96 97 97 90 85 88 90 89 86 90 95 98 98 100 80 98 95 88 95 94 92 96 96 79 92

GFSFLT2_850_rhum_057.txt.gz
RH
100 88 39 30 28 26 22 24 28 25 28 29 37 74 95 98 100 100 100 100 100 100 100 100 100 100 98
37 27 28 28 26 20 26 32 35 28 25 28 40 45 46 64 95 100 100 100 100 100 100 100 100 100 100
30 33 36 30 30 35 44 41 34 27 37 45 46 45 46 48 77 95 95 94 96 99 100 100 99 100 100
43 60 56 54 58 61 69 53 42 41 46 48 48 48 47 49 53 53 52 53 54 71 97 100 100 100 100
63 69 76 82 94 84 70 72 60 47 49 50 48 48 48 51 52 52 54 53 51 68 100 100 99 98 99
81 86 96 93 78 83 98 94 100 61 68 93 59 56 54 56 56 53 48 50 58 100 100 100 100 99 100
100 96 94 74 75 90 97 99 92 61 78 86 61 60 58 58 54 54 54 55 58 82 100 100 99 99 100
82 71 66 88 100 99 83 84 77 63 77 92 64 69 75 64 58 55 57 61 64 82 100 100 100 100 100
53 64 74 70 71 76 75 84 86 70 78 89 78 88 77 64 62 61 64 65 69 70 68 75 98 100 100
68 65 68 68 71 77 82 88 93 90 87 96 89 94 100 74 70 66 63 63 66 68 70 72 75 100 100
65 66 68 70 72 77 82 88 92 88 81 100 91 92 100 95 72 68 70 66 67 68 70 70 74 77 82
68 68 69 72 74 78 82 87 91 88 82 95 96 94 99 96 88 74 72 72 76 73 70 71 73 78 84
74 74 77 78 78 78 77 80 79 78 80 85 90 92 97 98 99 78 81 73 72 72 75 76 76 80 80
82 78 80 81 78 82 81 82 77 69 72 78 85 95 94 90 94 81 73 92 72 76 82 85 84 85 80
84 80 81 85 80 84 87 86 87 80 72 73 83 88 86 84 83 74 79 78 80 84 94 90 79 82 87
85 88 90 90 86 82 91 93 89 86 86 83 85 83 78 90 85 82 85 87 86 96 98 100 89 88 95
88 91 95 95 100 98 93 94 89 91 90 86 94 100 99 100 92 97 93 87 94 93 94 98 98 79 90

GFSFLT2_850_rhum_060.txt.gz
RH
96 100 99 100 97 64 34 29 23 18 17 23 21 21 28 80 98 100 100 100 100 100 100 100 100 100 100
99 99 97 92 62 32 30 22 20 20 23 23 30 37 42 47 56 83 98 99 98 100 100 100 97 96 100
91 56 34 29 24 38 51 35 44 25 31 39 39 42 43 43 48 71 60 61 89 96 98 99 100 100 100
38 40 64 75 90 71 80 84 77 46 53 42 43 43 42 44 45 45 46 48 50 54 84 95 99 100 100
79 93 95 88 84 88 89 86 80 58 67 82 82 62 51 47 44 45 49 52 52 54 96 100 100 99 100
97 89 87 86 88 89 93 100 100 72 90 94 76 79 58 58 50 50 52 53 52 57 97 100 100 100 100
94 92 92 92 91 65 100 100 100 95 99 97 88 90 73 64 50 50 51 51 52 55 84 100 100 100 100
86 96 96 90 100 100 100 100 100 98 99 96 87 93 73 64 54 50 53 56 57 58 64 98 98 99 100
38 38 50 61 68 76 79 100 100 82 81 89 86 100 74 63 63 61 56 58 61 64 68 71 88 100 100
62 62 64 66 70 74 79 82 87 93 95 88 85 99 100 70 73 68 61 62 65 70 71 74 82 100 99
67 67 68 70 72 77 82 86 87 86 82 100 84 86 100 96 65 69 67 65 68 71 74 76 75 80 83
69 69 70 71 76 78 81 83 86 83 80 93 93 88 94 90 88 69 70 72 75 67 70 74 77 77 82
71 71 72 72 74 76 74 78 79 75 74 81 88 89 95 96 96 78 76 68 69 73 77 84 87 90 85
75 75 74 74 77 82 80 82 79 71 74 78 83 92 88 88 98 85 74 97 75 76 92 94 98 94 90
81 81 81 84 87 90 88 85 85 79 71 74 82 95 96 90 86 84 85 83 90 93 100 99 94 94 95
85 86 87 89 92 91 96 100 100 96 84 76 80 86 95 99 94 89 84 92 100 100 100 100 92 85 93
86 88 92 94 97 100 100 100 98 100 99 100 100 100 96 98 93 99 96 97 96 92 100 100 99 73 81

GFSFLT2_850_rhum_063.txt.gz
RH
90 94 93 97 99 100 100 98 70 30 16 10 12 14 16 23 38 55 73 95 98 98 99 99 100 100 100
97 100 99 100 99 82 51 40 25 13 16 16 14 21 32 35 37 38 58 86 97 100 100 100 100 100 99
100 98 87 66 51 28 24 32 32 38 34 24 35 39 37 40 42 48 58 71 92 93 95 96 96 98 100
67 43 27 35 41 45 58 80 69 55 57 46 65 52 48 48 47 49 47 49 51 55 77 85 92 100 100
28 46 64 78 83 81 83 77 49 49 50 67 77 60 53 49 50 56 67 79 86 93 93 99 100 100 100
63 69 74 83 83 85 83 65 82 60 79 53 65 60 52 51 53 60 68 69 89 95 97 100 100 100 100
45 65 84 87 87 73 70 99 95 71 95 63 63 64 51 53 53 55 56 54 53 55 57 62 96 100 100
58 70 74 87 92 96 97 97 74 73 96 89 67 64 55 54 54 53 53 56 58 59 61 74 99 100 100
33 33 36 45 57 65 65 76 82 68 68 79 69 75 59 51 53 55 61 66 66 66 67 79 93 100 100
79 77 62 62 65 68 72 76 92 90 91 82 81 88 89 62 65 65 59 64 68 71 72 80 99 100 100
72 70 74 78 79 79 80 86 86 82 75 100 87 83 97 82 68 67 68 70 71 70 70 71 72 75 84
69 70 73 73 72 74 79 82 83 80 78 89 92 85 92 89 83 69 69 68 66 66 71 76 77 81 87
70 77 79 75 72 73 75 76 76 75 75 79 89 88 95 96 95 80 78 65 63 72 78 87 99 100 94
72 73 74 75 74 76 78 81 80 71 69 75 91 100 97 97 100 96 85 100 82 73 83 88 92 95 94
72 73 75 77 78 82 86 86 92 92 75 85 92 100 100 100 96 83 96 100 100 100 100 97 100 99 92
79 82 81 82 83 86 91 95 100 100 100 100 100 100 96 95 87 90 100 100 93 91 100 100 90 83 85
82 84 87 86 88 88 90 97 100 100 100 100 100 100 98 100 94 96 95 84 88 90 93 100 100 82 85

GFSFLT2_850_rhum_066.txt.gz
RH
93 90 92 93 97 99 100 99 95 88 57 40 23 15 13 15 14 38 92 97 99 99 100 100 100 100 100
98 98 98 99 99 99 98 74 63 42 21 18 21 24 28 29 35 56 62 67 77 98 100 100 100 100 100
100 98 99 98 87 63 40 23 24 34 30 24 31 31 34 38 38 43 47 56 74 90 98 97 97 98 100
93 84 65 42 35 34 31 43 39 45 26 34 39 39 43 45 48 49 51 57 81 86 87 87 88 94 100
38 24 30 45 57 68 60 57 45 35 38 44 47 47 46 46 48 51 52 81 97 97 98 100 100 100 100
26 34 51 72 78 77 70 69 43 50 54 42 52 43 46 49 52 56 69 87 97 98 99 99 100 100 100
26 47 70 82 75 72 68 50 50 54 53 36 53 45 51 53 55 57 57 62 67 72 84 96 100 100 99
53 50 56 64 66 53 47 49 49 55 71 56 56 49 51 50 54 54 58 62 65 75 90 94 100 100 100
47 38 34 34 39 50 55 62 59 55 62 67 62 63 53 47 54 58 61 66 67 68 74 100 100 100 100
52 54 56 57 60 62 67 68 71 70 70 71 68 76 80 57 63 63 61 65 68 70 70 74 98 100 98
63 62 66 70 70 68 68 70 76 76 72 95 76 79 97 87 61 60 58 60 65 65 67 68 73 76 98
70 72 71 68 66 68 68 73 77 76 76 88 92 92 100 92 84 61 57 58 62 66 72 74 76 86 97
72 71 71 72 72 71 71 72 74 76 78 86 88 94 100 100 98 76 78 69 64 72 74 75 77 86 83
75 74 75 74 74 76 80 85 82 72 80 91 99 100 100 100 100 79 79 98 77 76 81 73 75 80 82
76 75 75 76 77 80 82 84 88 82 75 92 100 100 100 100 91 78 86 92 89 90 99 99 86 82 79
80 81 81 82 84 83 86 89 89 86 95 93 100 100 100 95 85 81 94 92 86 88 88 92 83 70 77
86 87 88 90 93 89 91 94 92 92 90 100 100 100 100 97 80 84 92 79 82 85 87 90 91 77 79

GFSFLT2_850_rhum_069.txt.gz
RH
100 98 100 97 100 96 99 96 97 100 100 98 73 52 31 17 14 38 75 97 97 98 100 100 99 100 99
98 100 96 99 98 98 100 99 100 90 64 45 27 33 32 30 39 55 63 71 98 100 100 99 100 100 100
100 99 99 100 100 100 98 81 52 37 30 38 30 24 30 34 63 76 81 78 84 88 89 92 95 98 100
100 100 100 98 85 53 40 39 46 45 42 30 22 34 39 44 47 46 47 47 48 50 72 85 92 98 100
76 84 56 37 48 55 49 54 57 36 27 38 40 42 46 49 50 48 48 49 58 85 98 98 99 100 100
32 42 60 59 64 68 60 60 37 34 46 42 45 46 49 50 51 51 53 52 51 56 84 99 100 100 100
42 52 54 56 65 64 53 44 41 50 52 42 48 47 52 51 53 53 52 56 59 61 78 98 100 100 100
52 55 56 58 54 50 40 50 55 59 57 54 52 48 48 49 48 54 58 61 65 66 66 68 87 98 100
68 51 42 39 39 41 55 63 61 59 60 60 59 51 49 50 53 54 57 63 63 66 68 67 68 94 82
49 53 62 64 68 67 66 65 66 63 69 71 73 76 64 51 54 53 58 57 60 58 65 66 65 66 65
69 70 70 72 75 77 76 72 66 66 76 85 74 82 99 82 48 53 56 58 57 60 64 74 77 78 76
67 66 66 66 65 68 69 67 68 72 76 89 87 86 93 87 87 63 64 61 56 62 72 74 76 84 89
68 69 68 70 69 69 68 69 68 69 73 82 82 88 100 100 99 88 86 61 57 65 74 74 74 72 70
70 70 69 69 69 70 69 71 68 66 77 86 90 100 99 100 100 86 83 98 70 71 81 76 74 74 73
74 74 76 76 76 80 80 80 81 73 71 80 86 100 100 100 88 78 82 81 79 81 85 79 72 74 78
83 86 87 87 87 89 92 90 88 81 78 80 84 96 89 79 80 74 88 86 79 84 89 96 82 73 78
86 89 92 93 93 94 94 94 89 86 83 83 86 99 100 95 76 78 88 85 80 77 80 84 88 74 75

GFSFLT2_850_rhum_072.txt.gz
RH
100 98 100 100 100 100 100 100 100 100 100 98 99 100 96 71 57 35 49 66 96 97 100 99 100 96 99
100 100 99 99 100 98 100 100 100 100 99 100 94 63 52 34 27 35 62 72 88 93 95 99 100 100 100
98 100 100 98 100 100 100 99 99 98 84 55 36 28 28 19 31 85 84 71 55 47 40 49 76 96 99
99 99 100 100 100 99 98 82 50 41 37 35 32 25 22 36 40 44 45 43 41 42 45 65 84 96 99
100 99 97 97 76 54 47 52 53 47 37 30 28 37 44 47 48 47 46 45 45 53 80 98 100 100 100
45 49 48 48 52 54 56 58 52 35 30 41 49 47 51 50 50 52 50 50 52 53 67 79 82 97 100
35 46 52 56 63 71 72 64 48 52 53 44 49 50 52 54 53 50 52 55 56 59 58 62 68 67 86
44 48 54 56 57 58 58 48 50 57 56 50 52 51 53 51 47 52 57 58 60 61 62 62 62 65 74
62 59 51 50 53 46 50 64 60 60 62 61 57 52 49 51 55 56 55 60 60 57 55 53 57 60 58
48 55 60 66 69 68 68 69 69 61 62 67 62 63 57 57 55 55 55 62 61 57 54 54 57 61 59
59 65 66 65 66 66 68 68 71 70 69 75 71 76 83 65 47 46 55 59 58 51 54 68 73 75 72
65 66 66 67 63 63 65 65 67 71 77 83 82 91 100 91 66 54 59 59 59 50 58 63 70 76 81
68 69 70 69 68 67 67 68 70 73 83 92 94 88 100 99 85 70 63 53 56 63 66 66 68 71 72
71 72 72 70 70 70 69 71 71 72 82 87 96 97 90 86 89 67 70 82 60 65 72 70 65 67 72
69 72 75 76 76 78 79 78 79 72 70 74 90 94 90 84 80 70 71 72 69 69 75 75 65 67 73
76 79 81 84 85 87 89 88 87 83 81 77 75 78 78 69 73 67 70 73 73 76 76 82 76 62 71
79 82 85 88 91 92 94 94 91 90 87 87 89 93 94 87 72 78 78 77 81 77 77 80 87 72 76

GFSFLT2_850_rhum_078.txt.gz
RH
94 89 90 85 90 99 99 99 100 100 99 99 99 99 99 99 100 99 99 98 98 98 98 99 100 98 99
90 94 98 92 97 99 98 98 99 100 99 99 100 100 100 100 99 96 96 93 68 75 98 98 100 99 99
91 99 100 97 97 97 99 99 100 99 99 99 98 99 100 98 94 65 43 43 77 42 60 69 85 97 100
98 100 100 98 98 98 98 99 100 96 89 77 59 49 52 54 46 39 32 27 39 47 46 44 42 59 94
94 93 92 90 86 82 73 62 53 48 42 38 36 31 30 24 21 24 32 39 43 45 46 66 81 78 96
31 31 32 34 38 42 43 40 38 34 26 24 22 19 25 34 39 40 42 45 46 46 47 49 59 55 76
18 21 25 29 37 41 42 40 36 33 26 24 40 44 45 48 49 49 49 49 50 49 49 48 47 49 49
22 28 30 32 35 43 44 39 36 32 41 48 51 51 51 51 50 50 50 48 48 50 50 47 46 47 46
23 24 28 34 28 32 37 41 45 55 57 58 52 50 52 52 52 50 51 55 58 57 51 50 51 49 44
30 30 36 44 50 52 54 54 55 58 58 64 61 60 54 56 58 64 66 68 64 58 52 54 54 51 46
48 52 55 57 59 60 62 61 58 59 66 75 68 65 66 58 53 61 64 64 64 60 58 56 55 54 44
53 55 58 60 62 62 63 63 64 64 65 74 86 79 92 80 66 58 59 60 54 53 54 57 57 58 60
56 57 59 61 63 62 60 59 59 61 66 70 74 75 87 81 73 66 66 52 53 60 63 65 60 62 61
56 58 59 59 62 65 66 68 66 66 80 84 84 82 78 74 74 65 70 72 62 62 67 63 62 64 65
59 60 59 63 66 72 73 76 78 77 80 89 92 89 84 84 74 67 67 67 65 65 72 67 59 62 62
60 59 62 67 72 76 80 83 85 85 86 90 90 88 84 78 80 76 76 75 74 74 77 78 68 62 64
50 56 63 68 76 80 85 91 88 89 88 92 92 95 94 88 75 86 79 77 79 76 78 78 76 61 62

GFSFLT2_850_rhum_081.txt.gz
RH
84 87 89 91 90 94 100 100 99 99 100 100 98 99 97 98 97 99 99 100 99 100 99 99 98 97 98
86 92 97 93 95 98 99 96 98 98 99 98 97 96 95 94 98 98 97 97 98 98 93 75 98 97 96
93 95 98 99 99 99 95 98 98 97 95 95 94 94 93 97 97 94 93 90 58 28 28 46 75 96 98
93 99 99 98 98 96 93 92 92 93 91 87 83 78 73 73 56 39 34 28 19 20 37 47 46 44 64
87 88 86 80 70 62 55 52 46 42 38 34 31 29 29 30 29 24 23 24 34 43 45 45 63 70 79
16 21 24 26 27 29 30 31 34 29 26 25 20 19 20 25 32 39 42 46 48 49 47 47 46 45 41
16 18 21 24 26 27 30 32 34 33 27 23 29 38 42 45 47 50 51 53 54 53 52 50 49 46 46
18 20 21 21 22 23 23 24 25 27 34 40 46 50 51 50 51 52 52 50 49 50 52 51 48 45 45
16 16 19 20 23 28 39 47 50 50 50 52 51 50 51 51 52 52 48 51 53 53 53 50 47 45 47
31 33 36 40 42 47 50 50 52 55 55 57 51 50 52 55 56 59 60 61 62 60 56 52 48 48 50
42 44 46 48 51 54 55 56 56 57 58 60 60 63 62 56 54 59 62 60 59 58 59 56 48 52 55
45 48 50 52 54 54 54 54 56 56 58 60 67 67 69 68 57 54 58 59 61 60 59 53 52 54 54
46 49 52 55 56 58 58 58 58 59 62 67 68 74 78 76 69 66 62 56 58 54 56 60 62 62 58
49 51 52 54 56 58 59 62 64 69 80 83 82 83 82 81 82 74 76 75 71 70 67 60 57 60 61
47 52 54 55 57 64 66 70 72 72 75 87 89 86 84 85 82 76 76 75 75 74 76 68 61 62 62
32 40 45 52 58 64 71 74 75 76 77 85 89 89 85 79 79 76 76 76 78 78 79 78 67 66 67
26 28 32 35 45 60 66 74 75 76 78 86 90 95 94 88 75 80 78 78 78 75 79 80 76 64 69

GFSFLT2_850_rhum_084.txt.gz
RH
83 84 88 90 90 88 93 98 99 98 100 100 98 100 99 99 96 96 97 98 98 98 95 93 99 99 98
88 83 92 94 92 91 92 96 98 100 100 100 97 96 94 93 93 88 89 91 90 86 86 89 98 99 100
89 87 91 99 98 99 94 93 94 96 94 91 90 89 86 86 86 87 89 88 87 85 78 69 60 71 90
85 87 93 94 92 89 89 89 90 88 87 84 81 76 73 73 71 64 53 40 32 26 25 28 38 51 54
66 67 73 66 61 48 44 37 32 29 28 25 24 23 23 23 23 23 23 21 22 21 26 39 49 65 95
12 21 20 22 21 22 24 26 56 19 19 19 14 16 15 15 16 19 22 28 31 39 46 55 64 71 90
14 18 21 19 20 21 23 24 32 26 18 29 19 27 31 35 37 40 43 45 47 48 48 48 52 62 52
14 16 16 16 16 20 22 22 24 24 30 38 39 44 43 44 44 46 45 44 44 44 46 50 53 53 49
11 12 13 16 20 27 37 43 60 51 43 47 47 46 46 45 45 44 43 44 48 49 51 53 54 52 48
29 32 35 36 38 42 45 47 50 60 48 51 49 51 54 49 49 49 52 51 52 51 52 53 54 53 52
38 40 42 43 45 47 48 51 52 55 58 55 56 57 63 60 54 53 53 53 52 52 54 54 53 53 53
41 43 45 47 49 50 51 52 54 55 56 57 59 63 66 64 63 63 59 57 57 56 57 56 55 52 48
42 44 46 48 50 49 50 53 53 56 59 62 63 66 73 74 72 73 73 68 69 59 59 57 60 57 56
40 43 46 49 49 50 52 55 57 60 66 71 75 79 79 78 78 73 74 76 72 72 70 65 64 60 58
31 34 39 44 48 52 55 61 66 68 75 82 82 80 80 82 78 74 74 73 71 71 74 70 68 69 69
23 26 30 34 37 40 49 61 64 70 77 83 87 87 84 73 72 70 73 75 76 78 78 76 65 64 66
24 25 26 29 31 33 37 51 62 66 70 75 80 86 89 98 85 72 71 74 81 80 82 80 75 65 72

GFSFLT2_850_rhum_087.txt.gz
RH
87 86 84 87 86 85 87 90 98 100 100 100 98 96 100 99 98 94 93 92 89 92 99 99 100 100 100
84 85 88 84 87 88 88 90 92 98 100 99 97 99 96 94 90 89 88 86 85 88 86 94 100 100 100
88 90 86 83 87 94 91 89 90 92 93 91 90 92 93 90 87 86 86 86 86 86 87 87 89 90 91
83 82 79 70 76 78 78 71 77 79 82 84 83 82 81 81 80 74 68 61 47 37 28 22 19 20 25
75 60 51 45 42 34 34 30 27 22 20 21 19 19 18 17 18 17 19 20 21 20 20 18 24 38 49
16 24 23 18 16 16 17 18 49 27 21 17 15 15 13 12 14 12 13 16 22 27 28 36 53 63 74
12 16 18 13 15 15 16 18 26 26 13 18 20 24 27 27 30 31 31 33 35 38 41 43 43 46 52
10 10 10 12 12 13 16 19 27 27 29 33 41 38 38 38 37 39 40 40 41 40 40 40 41 43 45
8 10 13 15 17 20 27 35 56 60 39 41 45 41 41 42 41 41 40 42 44 44 44 44 45 45 46
24 27 28 30 33 35 37 40 43 56 47 45 41 42 44 46 44 44 45 44 46 46 46 46 46 47 46
33 33 34 35 37 39 42 43 44 46 45 46 46 47 48 44 42 46 46 46 45 45 45 45 47 48 46
34 34 37 39 40 43 44 46 46 48 51 49 52 53 53 50 45 53 52 53 57 55 51 49 48 49 51
32 34 37 39 43 44 44 46 48 50 52 55 56 58 60 62 61 60 62 59 63 61 58 59 56 52 52
28 30 32 37 40 40 42 47 50 51 57 60 64 67 68 68 69 63 69 73 67 69 67 62 62 66 65
22 24 26 28 30 31 33 42 51 57 60 64 66 68 70 72 67 66 71 72 72 70 69 64 63 64 64
20 21 23 25 27 28 27 26 33 49 64 75 74 71 70 61 62 62 70 73 74 74 74 74 63 62 64
21 23 25 26 29 29 32 31 28 31 46 75 80 83 88 73 59 70 71 76 79 72 75 79 77 63 67

GFSFLT2_850_rhum_090.txt.gz
RH
99 99 88 86 84 89 90 94 98 100 100 100 100 95 96 91 95 97 96 93 90 86 86 84 94 98 98
99 90 88 90 88 88 88 91 93 96 100 100 88 83 87 92 92 92 88 86 85 83 83 84 90 100 98
87 90 92 88 83 85 88 91 89 88 88 91 88 87 85 85 84 77 82 84 82 84 84 85 86 91 99
84 84 82 78 68 70 68 70 62 62 65 67 71 74 78 77 78 79 80 80 76 67 62 60 51 39 36
73 70 55 42 38 37 33 28 19 21 22 16 17 18 16 17 18 19 20 22 24 23 21 18 16 15 22
36 24 25 21 16 17 14 14 19 22 20 16 16 16 15 16 16 15 14 14 15 17 22 24 28 26 26
9 15 16 16 14 11 12 13 14 16 12 14 20 20 24 27 28 27 28 30 31 32 34 38 41 42 41
9 12 11 10 10 11 13 13 17 26 26 27 30 33 33 33 33 36 37 39 40 41 41 43 42 40 41
7 8 10 13 16 18 20 25 28 32 36 35 32 34 34 37 38 39 41 41 42 43 45 45 45 44 44
17 22 25 27 27 28 30 31 35 38 40 40 36 37 39 40 42 40 41 42 44 47 46 45 45 45 45
25 27 27 29 31 32 33 35 38 41 39 42 42 40 39 38 40 43 43 43 43 42 42 43 45 46 44
26 26 28 30 31 34 35 37 37 39 43 42 45 47 44 42 40 47 48 52 54 56 55 55 54 52 49
25 25 27 29 30 31 32 34 36 39 42 45 48 53 53 53 52 52 54 56 62 59 59 59 59 59 58
21 21 22 24 24 24 23 22 23 30 38 44 52 56 58 61 64 56 62 68 65 67 66 62 59 57 59
17 18 19 21 22 22 21 21 20 20 25 37 49 55 58 61 54 54 61 65 69 69 69 61 56 59 65
16 17 20 22 24 25 25 24 24 25 25 28 42 54 54 45 49 50 58 61 67 67 66 70 53 54 61
14 17 21 24 26 26 26 26 27 29 31 34 38 59 65 47 39 52 54 65 72 65 71 73 72 54 63

GFSFLT2_850_rhum_093.txt.gz
RH
98 98 99 99 86 82 84 93 100 100 100 100 100 100 100 94 90 99 100 98 96 93 89 86 88 86 86
99 97 100 90 89 86 88 91 97 100 100 100 99 93 85 86 89 88 91 93 90 88 85 83 85 88 99
99 97 93 94 88 86 83 90 92 90 89 91 91 88 87 84 84 84 84 82 81 80 77 81 81 83 89
86 87 94 87 81 72 67 69 62 54 50 55 61 62 68 73 75 78 79 80 80 76 70 66 70 77 78
82 81 78 70 48 48 46 47 31 25 21 20 16 14 15 15 15 15 16 18 19 19 18 17 16 16 16
75 57 33 26 22 19 19 20 16 22 24 16 14 16 14 13 12 11 11 11 12 14 16 19 20 20 24
14 11 14 16 14 12 11 13 13 14 14 13 17 18 22 26 27 27 25 26 27 26 27 31 34 38 38
7 11 13 11 10 9 9 11 13 20 24 24 30 31 31 31 33 34 35 36 37 37 38 40 40 40 39
9 9 8 8 12 15 15 20 22 30 33 31 29 33 33 33 36 36 39 39 39 40 42 43 45 45 43
9 14 19 20 22 24 25 27 29 28 31 32 31 33 35 39 42 41 41 41 41 44 45 46 46 46 45
22 24 24 25 26 27 29 31 34 33 32 36 33 35 37 37 38 40 39 41 43 45 45 44 43 44 43
23 25 26 26 27 29 28 31 34 35 35 36 37 39 38 37 40 42 44 48 48 52 53 54 56 56 55
23 22 24 23 24 24 22 24 25 27 32 35 38 41 42 42 45 45 46 53 57 56 60 59 57 58 57
23 22 22 20 21 20 20 20 20 21 22 25 32 38 45 48 50 45 52 55 61 64 60 58 57 57 58
20 20 19 20 20 22 24 24 24 22 22 22 23 30 36 42 41 45 48 49 59 62 60 51 49 54 58
16 16 16 18 21 24 28 28 27 26 26 27 27 27 29 34 37 39 44 48 60 60 62 55 44 51 56
14 15 16 18 21 25 29 30 30 29 30 32 34 36 38 38 45 49 47 55 58 61 66 70 60 53 62

GFSFLT2_850_rhum_096.txt.gz
RH
99 99 98 99 98 96 83 83 94 98 99 96 98 97 93 98 99 92 96 99 99 98 98 93 88 82 87
100 98 99 99 99 90 86 83 89 97 97 86 97 95 95 93 88 88 93 98 97 93 87 86 82 77 76
100 99 98 99 94 92 83 82 87 92 90 88 87 87 88 84 83 86 88 88 85 82 81 78 72 77 79
98 100 100 98 94 86 74 69 67 63 54 55 60 60 63 70 76 81 83 81 80 80 82 78 74 72 79
91 89 92 89 81 69 59 50 41 26 20 19 18 16 15 14 16 19 25 35 46 45 41 34 28 23 22
89 81 73 72 51 39 36 26 18 16 20 19 14 13 14 12 11 10 10 10 10 11 11 12 13 14 15
75 56 33 24 25 19 17 13 12 14 17 12 14 16 17 21 20 20 20 21 20 19 20 24 25 28 30
20 19 16 18 16 14 10 11 13 15 16 18 20 26 27 29 28 31 33 32 32 34 35 37 38 38 38
8 10 12 11 11 11 11 13 17 24 27 29 27 30 31 30 32 32 36 37 37 37 37 38 38 39 39
8 7 8 12 16 18 20 24 24 26 27 30 28 31 31 31 35 37 37 35 36 38 39 38 39 40 39
12 15 19 21 21 23 26 26 27 28 28 32 31 33 35 35 37 36 37 38 40 40 39 39 39 40 39
19 22 23 23 26 27 26 27 29 28 28 31 34 34 36 37 41 38 40 43 46 43 44 47 48 49 51
22 25 26 28 27 25 23 24 23 23 22 24 29 33 34 36 42 44 48 52 50 48 51 53 52 54 54
22 27 27 26 25 24 21 21 22 22 21 20 21 24 30 35 38 40 47 49 52 56 56 53 55 53 52
21 23 25 24 22 21 21 23 25 25 23 22 22 22 23 27 30 34 41 42 47 51 46 43 49 50 51
19 21 22 21 21 20 21 25 28 28 27 27 26 27 29 31 32 33 36 38 48 49 47 44 43 50 52
18 19 19 18 19 18 20 25 31 32 31 32 31 32 34 33 38 39 40 46 49 55 62 58 49 50 56

GFSFLT2_850_rhum_099.txt.gz
RH
100 99 100 98 98 97 99 89 90 100 100 99 100 94 93 95 93 100 99 100 100 98 100 100 98 93 86
99 100 99 99 99 97 99 89 90 99 100 99 100 100 96 88 92 81 84 88 90 94 100 98 91 87 85
99 99 98 98 98 98 95 91 86 91 93 100 91 87 86 85 88 86 86 80 78 83 80 81 80 78 74
100 99 98 99 99 100 94 88 80 80 79 75 68 65 65 71 78 79 82 83 85 85 82 78 77 76 76
100 100 100 100 98 94 88 75 62 50 38 25 19 20 18 17 29 46 62 72 78 80 78 75 72 65 55
98 96 95 91 93 87 75 51 47 31 21 19 18 15 12 11 11 10 10 9 9 9 11 10 10 10 10
99 95 84 81 76 61 39 34 26 18 18 18 12 12 13 14 15 12 13 12 11 10 10 11 14 16 16
84 77 56 40 33 29 25 21 18 16 15 13 14 16 19 24 25 25 28 23 22 23 25 27 30 33 36
28 14 25 20 21 20 14 12 13 15 18 21 22 24 27 28 28 28 33 31 32 30 32 33 35 36 36
11 10 13 14 11 13 15 14 17 21 24 27 25 26 27 25 28 30 32 30 33 34 35 35 36 37 37
14 12 11 14 17 21 23 24 25 24 24 27 27 28 29 30 30 34 37 34 34 34 35 36 38 38 38
16 16 23 26 27 28 28 28 28 28 28 28 29 30 33 35 36 33 34 35 35 35 36 38 39 40 41
20 25 31 31 28 29 29 28 28 26 24 23 24 25 30 35 36 38 40 40 40 41 41 44 47 46 47
23 30 32 30 29 29 27 24 22 22 22 22 21 20 21 26 31 36 42 48 44 44 44 45 50 50 48
19 21 27 30 29 28 25 22 22 24 26 26 24 23 22 22 23 27 35 37 41 44 40 39 44 44 43
19 20 22 25 27 26 22 21 22 26 28 28 26 26 28 32 34 31 32 33 36 38 38 38 39 46 45
21 21 20 21 24 22 20 21 20 23 30 32 32 32 32 37 40 37 36 38 40 41 42 42 42 44 49

GFSFLT2_850_rhum_102.txt.gz
RH
100 98 100 100 100 100 99 99 98 93 99 100 100 95 91 100 100 100 100 100 100 100 100 100 100 97 98
100 100 100 100 100 100 99 98 99 98 100 100 99 97 95 90 90 100 99 99 100 99 98 98 98 94 90
96 100 100 100 99 100 98 99 100 95 100 100 95 86 84 90 87 84 86 83 86 86 87 84 92 82 70
99 99 99 99 100 100 99 100 97 93 95 93 84 77 73 86 90 90 86 86 86 82 77 76 77 78 76
97 97 97 98 98 99 99 100 94 80 72 59 45 38 38 42 60 73 78 78 82 83 84 82 80 78 77
97 97 98 97 98 100 100 98 84 62 49 31 22 20 18 14 13 12 18 30 48 63 72 74 68 55 42
100 100 100 100 97 99 93 82 60 41 18 22 21 16 14 15 14 10 9 9 9 8 7 8 7 8 9
99 100 97 89 77 85 68 52 36 27 19 16 14 14 18 21 21 21 20 17 16 14 14 16 20 22 25
95 92 78 52 45 35 26 24 21 16 15 17 17 19 26 27 25 25 29 28 28 27 29 30 32 33 34
13 14 16 22 26 23 19 15 14 14 17 25 24 26 28 26 27 27 27 28 32 33 34 34 34 35 35
21 18 17 19 16 13 16 15 17 22 28 29 26 27 27 27 26 28 29 31 30 31 33 34 34 35 36
20 17 16 16 21 22 23 25 25 26 27 28 29 29 30 30 30 28 30 31 31 31 33 33 32 33 34
26 22 27 31 30 27 28 29 28 29 28 27 26 26 29 30 29 29 31 32 33 35 36 35 36 37 37
29 31 30 32 32 32 32 30 29 26 24 23 23 23 23 22 22 23 26 33 32 34 37 36 37 39 42
27 25 29 34 34 33 31 29 27 24 23 24 29 29 27 24 23 23 24 24 29 33 33 34 37 42 40
21 23 28 29 30 32 30 28 25 24 24 26 30 30 30 31 36 37 35 30 28 28 30 31 32 38 38
22 24 26 26 27 27 29 28 25 23 23 26 31 33 32 35 40 44 44 38 34 34 35 35 36 40 43

GFSFLT2_850_rhum_105.txt.gz
RH
99 92 97 95 100 100 100 100 99 96 96 94 95 94 91 100 97 100 100 100 100 100 97 95 99 100 94
99 99 99 100 100 100 100 100 97 99 100 100 99 94 90 96 99 100 100 100 100 100 100 100 100 100 100
99 95 92 100 99 100 100 100 100 99 100 99 99 90 82 89 90 95 99 100 99 100 100 98 99 97 92
99 95 96 100 100 100 100 100 98 100 99 91 95 86 80 84 89 86 86 90 86 86 83 83 82 77 74
100 99 98 99 98 99 99 100 99 100 94 82 78 68 57 57 77 89 86 84 84 86 88 87 84 81 79
100 99 100 99 99 100 100 99 98 99 78 65 50 29 20 17 20 40 59 69 74 77 81 83 84 83 81
99 100 99 100 100 99 98 98 100 87 38 44 32 24 20 17 14 11 10 10 13 21 36 50 56 52 36
98 100 100 99 99 94 100 100 91 74 50 22 19 21 16 17 16 15 12 11 10 9 8 8 8 11 11
97 98 100 98 80 71 65 67 52 37 28 21 16 15 18 23 22 25 25 25 21 19 19 20 21 25 27
43 48 54 45 51 36 38 37 32 22 16 18 20 23 26 26 26 28 30 30 32 31 30 30 30 33 34
21 20 21 26 29 26 28 22 19 16 22 20 25 26 26 25 25 27 28 29 30 32 35 35 35 36 35
23 22 20 21 19 17 17 18 17 19 24 25 26 26 26 26 28 27 28 29 32 34 34 33 32 33 34
25 24 20 22 26 29 26 28 29 28 28 28 28 30 28 27 27 27 29 29 30 31 33 33 32 33 34
26 29 23 24 31 33 32 33 32 30 30 29 27 26 25 26 27 26 26 30 29 30 33 33 34 35 37
22 25 28 28 32 33 34 34 32 30 28 25 24 26 30 31 29 26 25 25 26 28 30 32 33 36 37
20 21 22 24 24 28 33 35 32 31 30 27 25 27 32 35 35 34 35 36 34 31 29 28 28 33 34
19 20 21 22 22 23 26 29 30 30 29 30 26 25 30 35 36 39 42 41 41 39 36 34 34 36 37

GFSFLT2_850_rhum_108.txt.gz
RH
100 99 96 95 89 88 99 100 100 100 97 92 94 87 89 97 98 99 90 97 89 82 99 100 99 98 97
100 99 100 89 99 99 100 100 100 100 99 98 98 87 91 94 98 100 100 100 100 100 100 100 100 100 99
99 99 100 92 92 98 100 100 100 100 99 98 99 87 82 87 94 99 99 100 100 100 100 100 100 100 100
99 98 98 95 97 99 100 100 100 100 99 99 98 83 85 70 81 89 91 95 94 96 98 99 100 98 95
100 100 99 99 99 100 100 100 100 100 99 99 91 84 68 59 75 86 85 87 90 89 91 90 86 82 80
100 100 100 100 100 100 100 100 99 99 99 96 76 60 40 26 28 59 88 87 86 86 85 86 86 88 88
100 100 100 100 100 100 100 100 100 97 84 83 66 47 26 21 17 14 16 37 57 66 68 75 80 83 83
99 100 100 100 100 100 99 99 99 99 97 54 28 23 23 19 16 13 11 10 10 9 10 16 28 33 36
94 99 100 100 100 100 95 100 100 99 78 46 25 19 17 16 17 19 22 16 14 13 12 10 10 12 14
68 80 88 97 99 90 71 84 86 55 32 32 19 18 18 19 21 24 26 27 27 24 22 22 24 28 29
26 20 21 28 32 47 44 44 43 40 18 18 17 23 24 25 23 27 30 29 29 29 32 31 32 35 35
24 24 23 23 26 26 28 26 24 22 18 26 24 30 27 25 24 25 26 27 28 30 32 32 34 36 36
23 25 22 18 19 20 18 18 22 21 21 25 28 33 31 33 30 28 27 28 28 30 32 32 32 32 33
21 26 26 22 24 28 30 30 32 32 30 30 30 30 30 30 29 30 30 30 28 28 29 31 32 33 33
23 28 28 29 28 33 33 35 33 32 31 31 30 27 26 28 30 31 30 28 27 28 29 29 30 31 32
26 26 28 30 30 29 32 36 38 36 34 31 28 25 25 29 35 34 32 31 32 33 34 34 33 30 29
22 23 24 25 26 26 28 31 31 32 33 32 30 28 26 25 28 34 35 36 38 38 39 40 39 36 33

GFSFLT2_850_rhum_111.txt.gz
RH
95 94 99 96 96 99 92 95 98 98 97 99 87 85 81 82 96 100 100 91 83 81 85 90 99 100 89
99 91 98 91 94 90 92 95 98 99 99 97 81 91 79 84 91 99 100 99 94 90 93 100 98 99 91
96 95 98 96 95 94 86 95 100 100 100 98 86 99 77 82 87 97 100 100 100 100 100 100 100 99 100
100 100 99 98 97 91 91 96 100 100 100 98 89 96 80 73 78 88 95 98 100 100 100 100 100 100 100
98 99 99 99 95 97 98 100 100 100 99 97 94 92 72 63 58 74 88 93 97 94 93 94 95 98 95
96 96 97 100 100 100 100 99 99 99 100 96 98 87 62 41 36 52 80 90 90 89 87 85 88 88 84
91 95 99 100 100 100 100 99 100 100 99 98 95 83 54 30 18 15 28 70 85 86 86 85 86 86 88
92 94 98 99 100 100 100 100 100 99 99 97 79 40 33 26 18 13 11 11 18 40 54 58 63 72 76
96 93 98 100 100 99 100 100 98 98 98 99 82 36 22 20 16 16 16 9 8 8 8 8 9 13 17
68 72 88 94 100 100 96 92 99 99 82 83 49 24 18 16 19 22 20 19 19 16 14 13 12 13 13
39 36 25 26 62 81 81 75 72 83 39 22 25 19 19 26 20 25 25 25 24 24 25 23 24 24 26
24 26 25 24 25 28 37 40 38 41 36 20 22 24 25 24 26 26 26 24 24 25 27 27 28 28 29
20 23 25 24 23 24 24 25 23 22 23 20 28 29 31 28 29 29 27 27 27 27 28 27 28 29 31
21 21 24 27 22 23 26 27 26 26 24 25 28 28 29 31 32 32 30 30 29 28 28 28 28 29 29
25 22 24 27 28 28 32 34 33 31 32 32 32 31 31 30 30 29 30 31 31 30 30 30 30 30 29
27 26 25 28 30 30 31 34 34 34 33 32 31 30 28 26 27 30 33 34 32 30 31 32 34 35 34
23 25 25 24 26 25 27 29 28 30 31 33 33 32 31 26 22 25 31 34 35 34 36 36 36 38 39

GFSFLT2_850_rhum_114.txt.gz
RH
80 87 98 97 85 86 95 93 88 91 97 99 96 93 79 77 72 91 98 96 83 80 73 67 77 90 99
88 99 100 98 85 95 94 92 91 92 99 96 97 81 84 80 72 92 100 99 94 75 83 81 84 96 100
98 100 98 99 98 96 92 92 85 93 99 97 93 81 88 76 77 90 99 100 100 88 97 99 100 90 78
100 99 99 98 98 98 94 90 93 91 100 99 94 83 93 71 71 82 96 99 100 100 100 100 100 100 100
98 98 97 98 98 99 94 92 96 96 98 97 89 88 96 69 61 64 88 95 97 100 100 100 100 100 100
96 92 93 96 98 98 98 99 94 90 96 93 96 92 98 66 44 39 73 90 94 95 91 95 91 94 100
91 91 91 97 99 99 99 99 97 97 100 96 92 96 94 63 35 18 18 57 90 91 89 92 88 93 96
90 91 89 94 97 100 100 98 98 98 100 99 93 94 52 39 31 19 15 14 24 74 90 89 86 85 86
88 90 89 84 91 96 99 99 99 98 98 98 96 95 55 21 20 17 13 10 11 11 19 28 46 57 70
84 77 75 84 90 98 98 99 100 98 99 98 95 90 23 15 15 15 16 15 12 11 9 9 10 10 14
53 48 46 37 45 85 96 99 98 99 75 31 38 36 25 18 17 16 20 22 23 24 20 17 15 13 14
21 24 26 24 23 26 37 52 62 74 75 60 26 22 19 18 23 23 22 26 26 25 26 24 25 25 26
22 21 21 24 24 25 29 32 36 39 39 37 25 28 27 26 26 24 25 26 26 25 26 26 28 28 27
25 21 19 26 27 24 23 24 23 22 24 22 22 23 29 30 29 27 32 29 29 28 27 26 26 26 26
26 25 24 28 28 29 27 31 33 31 32 32 32 31 30 29 29 29 29 29 30 31 31 29 28 28 29
26 27 28 28 30 30 32 30 34 35 34 34 34 33 31 28 27 26 26 30 32 33 32 30 31 31 33
27 25 26 26 27 24 26 28 28 30 34 37 38 36 33 26 24 24 24 27 32 34 34 34 34 35 36

GFSFLT2_850_rhum_117.txt.gz
RH
70 79 79 80 93 91 79 89 91 88 88 86 90 93 91 82 76 70 92 83 89 88 77 74 56 65 73
68 69 77 92 95 91 89 95 92 89 88 86 86 88 85 80 82 74 96 90 93 88 83 71 56 75 86
66 67 77 99 99 98 97 96 91 89 85 86 91 86 80 84 81 77 98 99 100 99 83 84 84 91 96
69 75 81 94 93 98 98 96 91 87 87 91 99 85 84 90 80 69 92 99 100 100 97 95 98 88 80
72 85 99 98 93 95 96 95 92 92 90 97 97 84 84 92 79 56 76 97 100 100 100 100 92 77 77
75 86 87 88 92 95 97 93 100 91 86 90 91 87 87 97 74 41 48 91 100 98 100 98 94 100 100
81 83 87 90 91 94 94 99 100 98 94 89 93 89 94 87 76 39 21 53 96 98 99 100 96 87 96
88 89 90 91 94 93 96 98 97 97 99 99 94 90 97 81 36 33 19 15 49 95 97 99 100 99 98
89 89 90 92 87 91 93 97 99 100 100 100 95 97 96 81 28 18 16 13 12 30 84 94 92 95 99
92 87 80 75 83 89 91 99 100 100 97 94 99 94 66 18 21 18 15 15 12 9 10 23 41 62 85
80 65 55 54 50 54 87 98 100 98 99 67 33 36 60 40 23 16 18 21 22 17 14 12 11 10 14
34 22 20 25 26 24 25 37 61 69 61 67 70 39 24 22 21 24 18 24 27 27 26 24 20 20 20
23 20 17 18 22 23 24 26 30 36 36 40 48 35 26 26 27 27 26 25 25 27 29 30 32 35 30
23 21 20 18 19 23 22 20 21 21 22 24 27 26 22 27 28 28 28 31 30 28 27 26 28 30 32
24 24 24 19 20 25 26 22 24 29 30 31 30 28 26 28 26 28 29 29 31 30 30 30 29 28 30
29 25 21 23 23 25 27 29 28 31 34 35 36 34 34 30 28 27 28 27 28 30 32 33 32 31 31
24 24 22 24 26 26 27 26 28 30 32 34 37 39 36 34 28 27 27 26 26 28 33 34 34 32 32

GFSFLT2_850_rhum_120.txt.gz
RH
66 71 76 77 78 76 74 73 74 85 89 91 90 86 87 89 85 77 69 99 87 78 88 80 74 64 44
68 72 74 68 64 65 67 72 77 90 91 90 88 84 82 81 81 83 78 98 96 82 83 78 67 65 61
62 68 71 71 68 68 72 70 83 93 91 88 87 87 84 83 87 83 74 99 100 99 98 89 78 68 79
59 60 64 70 68 75 77 79 90 94 90 90 86 85 84 83 86 84 68 100 98 99 100 100 97 88 79
59 63 67 73 80 82 82 91 94 91 88 87 85 86 85 85 90 86 54 94 97 100 100 100 95 89 88
63 66 73 74 78 82 91 92 92 94 88 87 89 84 82 85 95 86 40 78 94 100 100 100 100 100 95
67 72 76 76 82 86 90 89 93 98 98 91 86 85 87 90 85 69 39 34 91 96 100 100 96 100 99
76 79 80 81 84 86 88 92 93 98 99 99 93 91 90 98 90 33 32 18 41 94 95 91 99 100 100
81 84 85 84 87 85 86 88 97 99 100 100 94 96 99 92 78 32 17 16 14 29 89 96 95 98 98
86 86 84 82 80 84 91 99 100 100 99 99 77 83 83 21 19 21 17 15 12 11 24 76 97 97 100
87 84 78 72 67 65 72 99 100 100 98 99 81 41 40 50 24 22 17 18 19 12 10 11 20 48 79
81 63 36 24 28 30 28 34 55 91 99 88 71 70 34 22 20 22 19 20 24 24 21 18 14 11 14
32 22 22 20 20 24 25 26 28 33 39 39 48 51 38 26 26 27 28 28 24 24 25 26 25 22 21
24 20 20 19 20 22 23 23 23 23 25 28 29 30 29 24 26 30 28 33 31 30 27 25 26 28 27
22 22 24 24 20 20 25 25 24 28 30 28 28 28 24 21 23 28 30 30 32 32 32 31 30 28 29
24 30 25 23 24 23 26 27 28 29 34 35 36 34 32 31 30 30 30 29 30 29 29 30 32 32 32
30 23 25 26 22 25 27 28 30 30 30 34 37 35 33 31 32 31 29 26 25 25 26 29 33 35 33

GFSFLT2_850_rhum_123.txt.gz
RH
56 58 65 70 75 79 68 64 61 67 74 84 88 90 87 85 83 83 76 75 99 86 82 76 74 66 73
58 65 70 74 72 64 60 60 63 70 75 89 89 88 85 84 82 84 77 87 100 80 88 83 72 58 48
65 65 66 64 64 61 64 67 69 72 88 90 88 88 87 84 83 83 73 90 99 98 97 85 80 65 72
63 60 59 63 62 67 66 71 71 79 86 90 88 87 85 86 85 85 77 86 100 100 100 90 82 94 92
56 59 60 62 66 66 71 72 76 84 88 87 86 84 82 83 83 86 80 72 100 100 100 98 100 100 99
59 56 59 62 64 68 70 75 83 89 91 87 85 82 82 82 84 92 77 48 95 99 100 100 98 100 99
55 59 61 64 69 71 76 81 86 90 90 87 86 85 84 85 87 90 59 33 81 100 100 99 100 96 89
62 63 67 71 74 77 80 85 90 90 94 93 89 88 89 89 96 92 34 31 39 89 97 99 100 100 98
65 70 73 77 79 81 82 85 88 89 97 100 97 90 83 83 88 80 28 19 16 46 92 99 98 95 100
70 76 81 82 81 83 86 86 93 99 97 100 96 85 71 30 24 35 21 17 14 13 48 91 99 100 87
75 80 83 83 81 76 73 82 97 100 99 100 94 91 46 37 34 22 20 18 16 10 11 41 88 99 99
81 82 80 74 59 45 40 42 46 85 100 100 99 77 78 29 21 22 19 23 22 19 14 11 12 30 66
74 73 51 33 24 21 22 23 25 27 33 41 42 47 62 40 26 30 31 22 25 26 26 23 19 17 12
55 35 25 22 20 19 21 21 22 23 24 27 34 37 42 35 28 34 31 34 30 28 28 26 24 24 22
43 32 25 22 22 21 18 21 22 22 23 24 23 26 26 24 22 29 33 32 33 33 35 31 29 27 27
44 28 23 26 25 22 21 25 25 27 30 34 34 34 36 34 32 32 30 31 31 30 30 30 31 32 32
67 32 28 33 26 24 25 26 29 32 32 35 37 37 36 36 34 32 29 27 28 27 26 26 29 33 32

GFSFLT2_850_rhum_126.txt.gz
RH
89 98 92 67 67 71 73 62 58 57 60 60 76 85 87 84 84 83 78 67 86 93 73 81 77 79 72
100 91 63 65 70 71 69 64 62 61 66 73 76 86 86 85 84 83 78 66 95 99 99 84 82 70 62
87 61 62 67 68 68 66 65 68 66 66 77 77 84 86 85 85 84 79 70 96 92 90 79 83 70 63
64 63 67 66 63 63 62 66 70 68 74 83 86 89 88 85 83 83 81 70 99 97 98 100 99 87 80
66 70 63 58 55 62 62 64 68 70 73 80 84 86 85 84 82 83 83 64 99 99 99 100 99 95 90
68 60 56 57 59 59 63 68 74 74 76 87 88 88 85 82 84 84 85 55 97 100 99 100 100 96 89
60 59 57 58 60 64 68 71 70 74 82 88 89 87 87 86 84 86 86 48 76 99 99 100 92 81 83
62 62 62 63 64 69 75 73 74 81 88 89 91 91 89 87 91 90 80 38 37 96 99 100 93 97 96
58 64 64 68 67 74 77 78 79 85 91 99 98 95 88 61 68 82 71 23 24 55 100 99 100 100 91
67 71 68 71 76 82 81 81 83 92 97 99 100 92 60 46 25 23 47 18 17 16 73 100 100 100 99
65 64 68 76 79 80 80 80 83 98 100 100 99 94 89 46 29 22 18 17 15 12 14 68 99 98 98
65 66 74 80 81 78 74 64 60 75 99 100 100 97 84 71 23 19 18 17 17 16 11 18 59 97 100
68 73 81 80 76 56 35 26 28 31 34 45 61 53 50 59 26 24 26 18 22 22 17 12 10 18 46
79 75 78 62 40 29 24 21 22 23 24 28 31 34 38 45 30 28 29 32 23 23 23 22 21 18 17
74 64 53 36 28 24 21 19 20 21 22 23 24 25 29 30 27 27 31 31 32 30 28 25 24 25 25
78 59 46 36 29 26 24 22 22 24 24 25 25 25 26 25 23 24 27 30 29 30 31 34 33 32 31
98 85 70 56 30 28 27 24 25 27 28 28 31 31 30 35 36 33 33 30 30 29 28 28 28 30 31